• In Hungary
  • List of Countries
  • For 7 days
  • Water Temperature
  • Satellite Maps
  • Weather Map
  • News
  • Weather Widgets
  • user-avatar
    Login

    Hourly Weather Moshary

    Today, 19 July, Thursday

    Time Temperature Precipitation Wind Pressure Humidity
    00:00 +18°C° 0 mm 3 mps 734 mmHg 91%
    01:00 +18°C° 0 mm 3 mps 734 mmHg 93%
    02:00 +19°C° 0 mm 2 mps 734 mmHg 95%
    03:00 +19°C° 0.1 mm 3 mps 734 mmHg 95%
    04:00 +19°C° 0.1 mm 3 mps 734 mmHg 95%
    05:00 +19°C° 0.1 mm 4 mps 734 mmHg 94%
    06:00 +19°C° 0 mm 4 mps 734 mmHg 92%
    07:00 +19°C° 0 mm 4 mps 734 mmHg 91%
    08:00 +20°C° 0 mm 4 mps 734 mmHg 89%
    09:00 +20°C° 0.1 mm 4 mps 734 mmHg 85%
    10:00 +21°C° 0.1 mm 4 mps 734 mmHg 81%
    11:00 +22°C° 0.1 mm 4 mps 734 mmHg 77%
    12:00 +23°C° 0.3 mm 4 mps 734 mmHg 75%
    13:00 +25°C° 0.3 mm 4 mps 734 mmHg 74%
    14:00 +25°C° 0.3 mm 4 mps 734 mmHg 72%
    15:00 +25°C° 0.6 mm 4 mps 734 mmHg 76%
    16:00 +25°C° 0.6 mm 4 mps 734 mmHg 80%
    17:00 +23°C° 0.6 mm 4 mps 734 mmHg 84%
    18:00 +22°C° 0.5 mm 3 mps 734 mmHg 87%
    19:00 +21°C° 0.5 mm 3 mps 733 mmHg 90%
    20:00 +20°C° 0.5 mm 3 mps 733 mmHg 93%
    21:00 +20°C° 0 mm 3 mps 733 mmHg 94%
    22:00 +19°C° 0 mm 3 mps 733 mmHg 96%
    23:00 +19°C° 0 mm 2 mps 733 mmHg 98%

    Tomorrow, 20 July, Friday

    Time Temperature Precipitation Wind Pressure Humidity
    00:00 +19°C° 0 mm 3 mps 733 mmHg 97%
    01:00 +19°C° 0 mm 3 mps 733 mmHg 97%
    02:00 +19°C° 0 mm 3 mps 733 mmHg 97%
    03:00 +19°C° 0.1 mm 3 mps 733 mmHg 97%
    04:00 +19°C° 0.1 mm 3 mps 733 mmHg 96%
    05:00 +19°C° 0.1 mm 2 mps 733 mmHg 96%
    06:00 +19°C° 0.1 mm 2 mps 733 mmHg 95%
    07:00 +19°C° 0.1 mm 3 mps 733 mmHg 95%
    08:00 +20°C° 0.1 mm 3 mps 733 mmHg 94%
    09:00 +20°C° 0.1 mm 3 mps 733 mmHg 93%
    10:00 +20°C° 0.1 mm 3 mps 733 mmHg 92%
    11:00 +21°C° 0.1 mm 2 mps 733 mmHg 90%
    12:00 +22°C° 0.2 mm 3 mps 733 mmHg 86%
    13:00 +24°C° 0.2 mm 3 mps 733 mmHg 81%
    14:00 +24°C° 0.2 mm 3 mps 733 mmHg 77%
    15:00 +25°C° 0.2 mm 3 mps 733 mmHg 76%
    16:00 +25°C° 0.2 mm 3 mps 732 mmHg 76%
    17:00 +25°C° 0.2 mm 3 mps 732 mmHg 75%
    18:00 +24°C° 0 mm 2 mps 732 mmHg 81%
    19:00 +23°C° 0 mm 2 mps 732 mmHg 87%
    20:00 +20°C° 0 mm 2 mps 732 mmHg 94%
    21:00 +20°C° 0 mm 2 mps 732 mmHg 95%
    22:00 +19°C° 0 mm 2 mps 732 mmHg 97%
    23:00 +18°C° 0 mm 2 mps 732 mmHg 98%

    Day after tomorrow, 21 July, Saturday

    Time Temperature Precipitation Wind Pressure Humidity
    00:00 +19°C° 0 mm 1 mps 732 mmHg 98%
    01:00 +19°C° 0 mm 1 mps 732 mmHg 99%
    02:00 +19°C° 0 mm 1 mps 732 mmHg 99%
    03:00 +20°C° 0 mm 1 mps 732 mmHg 98%
    04:00 +20°C° 0 mm 1 mps 732 mmHg 98%
    05:00 +20°C° 0 mm 1 mps 732 mmHg 97%
    06:00 +21°C° 0 mm 1 mps 732 mmHg 96%
    07:00 +21°C° 0 mm 1 mps 732 mmHg 94%
    08:00 +22°C° 0 mm 1 mps 732 mmHg 92%
    09:00 +23°C° 0.1 mm 1 mps 733 mmHg 89%
    10:00 +24°C° 0.1 mm 1 mps 733 mmHg 86%
    11:00 +25°C° 0.1 mm 1 mps 733 mmHg 82%
    12:00 +26°C° 0.1 mm 1 mps 733 mmHg 77%
    13:00 +27°C° 0.1 mm 1 mps 733 mmHg 72%
    14:00 +28°C° 0.1 mm 1 mps 732 mmHg 67%
    15:00 +28°C° 0.2 mm 1 mps 732 mmHg 69%
    16:00 +27°C° 0.2 mm 1 mps 732 mmHg 71%
    17:00 +27°C° 0.2 mm 1 mps 732 mmHg 73%
    18:00 +26°C° 0.1 mm 1 mps 732 mmHg 79%
    19:00 +24°C° 0.1 mm 1 mps 732 mmHg 85%
    20:00 +23°C° 0.1 mm 1 mps 732 mmHg 91%
    21:00 +22°C° 0 mm 1 mps 732 mmHg 93%
    22:00 +20°C° 0 mm 0 mps 732 mmHg 94%
    23:00 +19°C° 0 mm 0 mps 732 mmHg 95%

    22 July, Sunday

    Time Temperature Precipitation Wind Pressure Humidity
    00:00 +21°C° 0.7 mm 1 mps 732 mmHg 96%
    01:00 +21°C° 0.7 mm 1 mps 732 mmHg 96%
    02:00 +21°C° 0.7 mm 1 mps 732 mmHg 97%
    03:00 +21°C° 0.2 mm 1 mps 732 mmHg 97%
    04:00 +21°C° 0.2 mm 1 mps 732 mmHg 97%
    05:00 +21°C° 0.2 mm 1 mps 732 mmHg 97%
    06:00 +21°C° 0.5 mm 2 mps 732 mmHg 96%
    07:00 +21°C° 0.5 mm 2 mps 732 mmHg 94%
    08:00 +23°C° 0.5 mm 2 mps 732 mmHg 92%
    09:00 +24°C° 1.4 mm 2 mps 732 mmHg 89%
    10:00 +25°C° 1.4 mm 2 mps 732 mmHg 86%
    11:00 +26°C° 1.4 mm 2 mps 732 mmHg 83%
    12:00 +27°C° 1.2 mm 2 mps 732 mmHg 80%
    13:00 +27°C° 1.2 mm 2 mps 732 mmHg 78%
    14:00 +28°C° 1.2 mm 2 mps 732 mmHg 75%
    15:00 +27°C° 1.3 mm 2 mps 732 mmHg 79%
    16:00 +27°C° 1.3 mm 2 mps 732 mmHg 83%
    17:00 +26°C° 1.3 mm 2 mps 732 mmHg 87%
    18:00 +25°C° 0.5 mm 2 mps 732 mmHg 90%
    19:00 +24°C° 0.5 mm 2 mps 732 mmHg 92%
    20:00 +23°C° 0.5 mm 2 mps 732 mmHg 95%
    21:00 +21°C° 0.4 mm 2 mps 732 mmHg 96%
    22:00 +22°C° 0.4 mm 1 mps 732 mmHg 96%
    23:00 +21°C° 0.4 mm 1 mps 732 mmHg 97%

    23 July, Monday

    Time Temperature Precipitation Wind Pressure Humidity
    00:00 +21°C° 0.3 mm 1 mps 732 mmHg 97%
    01:00 +20°C° 0.3 mm 1 mps 732 mmHg 97%
    02:00 +20°C° 0.3 mm 1 mps 732 mmHg 98%
    03:00 +19°C° 0.1 mm 2 mps 732 mmHg 98%
    04:00 +19°C° 0.1 mm 2 mps 732 mmHg 98%
    05:00 +20°C° 0.1 mm 2 mps 732 mmHg 99%
    06:00 +20°C° 0.2 mm 2 mps 732 mmHg 98%
    07:00 +21°C° 0.2 mm 2 mps 732 mmHg 97%
    08:00 +21°C° 0.2 mm 2 mps 732 mmHg 96%
    09:00 +21°C° 0.1 mm 2 mps 733 mmHg 95%
    10:00 +23°C° 0.1 mm 2 mps 733 mmHg 94%
    11:00 +23°C° 0.1 mm 2 mps 733 mmHg 93%
    12:00 +23°C° 0.1 mm 2 mps 733 mmHg 91%
    13:00 +24°C° 0.1 mm 2 mps 733 mmHg 90%
    14:00 +24°C° 0.1 mm 2 mps 733 mmHg 89%
    15:00 +24°C° 0.3 mm 2 mps 733 mmHg 89%
    16:00 +24°C° 0.3 mm 2 mps 733 mmHg 90%
    17:00 +24°C° 0.3 mm 2 mps 733 mmHg 90%
    18:00 +23°C° 0.4 mm 2 mps 733 mmHg 92%
    19:00 +23°C° 0.4 mm 2 mps 733 mmHg 94%
    20:00 +21°C° 0.4 mm 2 mps 733 mmHg 95%
    21:00 +21°C° 0.4 mm 2 mps 734 mmHg 96%
    22:00 +20°C° 0.4 mm 2 mps 734 mmHg 97%
    23:00 +20°C° 0.4 mm 2 mps 734 mmHg 98%

    24 July, Tuesday

    Time Temperature Precipitation Wind Pressure Humidity
    00:00 +20°C° 0.1 mm 2 mps 734 mmHg 98%
    01:00 +19°C° 0.1 mm 2 mps 734 mmHg 98%
    02:00 +19°C° 0.1 mm 2 mps 734 mmHg 98%
    03:00 +19°C° 0.1 mm 2 mps 734 mmHg 98%
    04:00 +19°C° 0.1 mm 2 mps 734 mmHg 98%
    05:00 +19°C° 0.1 mm 2 mps 734 mmHg 98%
    06:00 +20°C° 0.1 mm 2 mps 734 mmHg 96%
    07:00 +21°C° 0.1 mm 2 mps 734 mmHg 95%
    08:00 +21°C° 0.1 mm 2 mps 735 mmHg 93%
    09:00 +23°C° 0.1 mm 2 mps 735 mmHg 90%
    10:00 +23°C° 0.1 mm 2 mps 735 mmHg 88%
    11:00 +24°C° 0.1 mm 2 mps 735 mmHg 86%
    12:00 +24°C° 0.3 mm 3 mps 735 mmHg 85%
    13:00 +24°C° 0.3 mm 3 mps 735 mmHg 84%
    14:00 +25°C° 0.3 mm 3 mps 735 mmHg 83%
    15:00 +24°C° 0.1 mm 3 mps 735 mmHg 84%
    16:00 +24°C° 0.1 mm 2 mps 735 mmHg 85%
    17:00 +24°C° 0.1 mm 2 mps 736 mmHg 87%
    18:00 +23°C° 0 mm 2 mps 736 mmHg 89%
    19:00 +23°C° 0 mm 2 mps 736 mmHg 92%
    20:00 +21°C° 0 mm 2 mps 736 mmHg 94%
    21:00 +21°C° 0.2 mm 2 mps 736 mmHg 95%
    22:00 +20°C° 0.2 mm 2 mps 736 mmHg 96%
    23:00 +20°C° 0.2 mm 2 mps 736 mmHg 98%
    Show more